[[{"header":{"parameterUnit":"m.s-1","parameterCategory":2,"la1":30.2991,"la2":30.254,"lo1":-89.0895,"lo2":-89.0444,"dy":0.0017,"dx":0.0017,"nx":28,"ny":28,"refTime":"2025-08-22T09:00:00:Z","depth":"0","parameterNumber":2,"parameterNumberName":"U-component_of_CURRENTS"},"data":[0,0,0,0,0,0,0,0,0,0,0,0,0,0,0,0,0,0,0,0,0,0,0,0,0,0,0,0,0,0,0,0,0,0,0,0,0,0,0,0,0,0,0,0,0,0,0,0,0,0,0,0,0,0,0,0,0,0,-0.1663,-0.1663,0,-0.1672,-0.1671,-0.1671,-0.1638,-0.1637,-0.1637,-0.1636,-0.1579,-0.1578,-0.1577,0,0,0,0,0,0,0,0,0,0,0,0,0,-0.1542,-0.1545,-0.1663,-0.1663,-0.1664,-0.1672,-0.1671,-0.1671,-0.1638,-0.1637,-0.1637,-0.1636,-0.158,-0.1578,-0.1577,0,0,0,0,0,0,0,0,0,0,0,0,0,-0.1572,-0.1545,-0.1663,-0.1653,-0.1652,-0.1672,-0.1671,-0.1671,-0.1638,-0.1637,-0.1637,-0.1636,-0.158,-0.1578,-0.1577,-0.1581,0,0,-0.1572,-0.1571,0,0,0,0,0,0,0,0,-0.157,-0.1576,-0.1653,-0.1653,-0.1653,-0.1658,-0.1608,-0.1639,-0.1638,-0.1637,-0.1636,-0.1636,-0.1604,-0.16,-0.1596,-0.1578,-0.1576,-0.1572,-0.1571,-0.157,-0.157,0,0,0,0,0,0,0,-0.1568,-0.1575,-0.166,-0.1654,-0.1654,-0.1622,-0.1626,-0.1613,-0.1619,-0.1637,-0.1636,-0.1647,-0.1602,-0.1598,-0.1594,-0.1575,-0.1572,-0.157,-0.1569,-0.1569,-0.1566,-0.1567,0,0,0,0,0,0,-0.1584,-0.1574,-0.166,-0.1661,-0.1616,-0.1626,-0.1629,-0.1652,-0.162,-0.1617,-0.1647,-0.1645,-0.1601,-0.1596,-0.1592,-0.16,-0.157,-0.1569,-0.1568,-0.1565,-0.1566,-0.1567,0,0,0,0,0,0,-0.1582,-0.1592,-0.166,-0.1621,-0.1628,-0.163,-0.1655,-0.1653,-0.1648,-0.163,-0.1623,-0.1645,-0.16,-0.1595,-0.1581,-0.1598,-0.1568,-0.1566,-0.1564,-0.1565,-0.1566,-0.1613,0,0,0,0,0,0,-0.1578,-0.1592,-0.1601,-0.1623,-0.1631,-0.1668,-0.1656,-0.1654,-0.1659,-0.1656,-0.1626,-0.162,-0.1599,-0.1583,-0.1579,-0.1595,-0.1565,-0.1563,-0.1564,-0.1566,-0.161,-0.1616,-0.162,0,0,0,0,0,-0.1574,-0.1591,-0.1602,-0.1612,-0.1649,-0.1669,-0.1669,-0.1663,-0.1659,-0.1656,-0.1639,-0.1621,-0.1592,-0.1583,-0.1577,-0.1593,-0.1562,-0.1564,-0.1566,-0.1608,-0.1615,-0.162,0,0,0,0,0,0,-0.1529,-0.1591,-0.1603,-0.1634,-0.1651,-0.1665,-0.1665,-0.1668,-0.1654,-0.1649,-0.1626,-0.1619,-0.1615,-0.1599,-0.159,-0.1599,-0.1577,-0.1578,-0.161,-0.1616,-0.1621,-0.1631,-0.1564,0,0,0,0,0,-0.1532,-0.1565,-0.1608,-0.1626,-0.1643,-0.1656,-0.1661,-0.1664,-0.1663,-0.1656,-0.1639,-0.1625,-0.1621,-0.1614,-0.1601,-0.1602,-0.16,-0.1612,-0.1617,-0.1621,-0.1627,-0.1658,-0.1666,-0.1574,-0.1574,-0.1574,0,0,-0.1514,-0.1555,-0.1569,-0.1619,-0.1632,-0.1658,-0.1655,-0.1669,-0.1681,-0.1652,-0.1648,-0.1638,-0.1625,-0.1627,-0.1625,-0.1614,-0.1642,-0.1624,-0.1628,-0.1631,-0.1661,-0.167,-0.1678,-0.1575,-0.1575,-0.1575,0,0,-0.1503,-0.154,-0.1568,-0.1596,-0.1635,-0.1648,-0.1658,-0.168,-0.1679,-0.1682,-0.1672,-0.1679,-0.1653,-0.1663,-0.1662,-0.169,-0.1667,-0.168,-0.1713,-0.1743,-0.1751,-0.1758,-0.1749,-0.1755,-0.1684,-0.1684,-0.1684,0,-0.1474,-0.1534,-0.157,-0.1608,-0.1633,-0.165,-0.1679,-0.1685,-0.1693,-0.1705,-0.1682,-0.1692,-0.1678,-0.171,-0.1714,-0.1704,-0.1697,-0.169,-0.175,-0.1757,-0.1764,-0.1753,-0.1759,-0.1686,-0.1686,-0.1686,-0.1686,0,-0.1499,-0.1542,-0.1559,-0.1622,-0.1644,-0.1671,-0.1704,-0.1716,-0.1719,-0.1731,-0.1753,-0.1742,-0.1753,-0.1753,-0.1735,-0.1782,-0.1753,-0.1753,-0.1736,-0.1776,-0.1761,-0.1767,-0.169,-0.1689,-0.1688,-0.1688,0,0,-0.1442,-0.1557,-0.156,-0.1603,-0.1663,-0.1685,-0.1715,-0.1757,-0.1786,-0.1785,-0.1819,-0.1823,-0.1824,-0.1825,-0.1818,-0.184,-0.1872,-0.1811,-0.1811,-0.1802,-0.1906,-0.1793,-0.1787,-0.1879,-0.1881,-0.1882,-0.1871,0,-0.1447,-0.153,-0.158,-0.1637,-0.1686,-0.1726,-0.1755,-0.1791,-0.1808,-0.1838,-0.1854,-0.1871,-0.185,-0.1855,-0.1879,-0.1873,-0.1891,-0.1873,-0.1867,-0.1867,-0.1763,-0.1792,-0.1699,-0.1673,-0.1876,-0.1877,-0.1877,0,-0.146,-0.1519,-0.1586,-0.1683,-0.1705,-0.173,-0.1797,-0.1827,-0.1878,-0.1894,-0.1925,-0.1926,-0.1958,-0.1931,-0.1958,-0.1942,-0.1928,-0.1922,-0.1921,-0.1805,-0.1764,-0.167,-0.1675,-0.1653,-0.1885,-0.1885,-0.1884,0,-0.1424,-0.1524,-0.158,-0.1613,-0.1712,-0.174,-0.178,-0.1838,-0.1872,-0.1926,-0.1947,-0.1986,-0.1992,-0.2004,-0.1965,-0.1971,-0.1972,-0.1985,-0.1874,-0.1864,-0.1779,-0.1758,-0.1764,-0.2015,-0.2015,-0.2015,-0.2015,0,-0.143,-0.1474,-0.1569,-0.1603,-0.1656,-0.1728,-0.1777,-0.1826,-0.1892,-0.1929,-0.1968,-0.1985,-0.201,-0.2001,-0.1983,-0.1919,-0.1988,-0.1879,-0.1861,-0.1787,-0.1769,-0.1738,-0.1761,-0.2014,-0.2014,-0.2014,-0.2014,0,-0.1394,-0.146,-0.1527,-0.1622,-0.1644,-0.1678,-0.1764,-0.1808,-0.1873,-0.192,-0.1935,-0.1986,-0.1972,-0.1965,-0.1966,-0.192,-0.1845,-0.1848,-0.1729,-0.1697,-0.1571,-0.16,-0.1594,-0.1546,-0.1745,-0.1743,-0.174,0,-0.1395,-0.1423,-0.1511,-0.1536,-0.1576,-0.1636,-0.1678,-0.1774,-0.1818,-0.1903,-0.1919,-0.1931,-0.1906,-0.1848,-0.1787,-0.1727,-0.1739,-0.1595,-0.16,-0.1545,-0.1568,-0.16,-0.1564,-0.1505,-0.1501,-0.1497,-0.1495,0,-0.1369,-0.1389,-0.1434,-0.1482,-0.1525,-0.1583,-0.1648,-0.1679,-0.1783,-0.1813,-0.1831,-0.1818,-0.1775,-0.1659,-0.1571,-0.153,-0.1545,-0.1522,-0.1523,-0.142,-0.1405,-0.1353,-0.151,-0.1465,-0.1468,-0.147,-0.1472,-0.1473,-0.1319,-0.1333,-0.137,-0.1413,-0.1462,-0.1499,-0.1496,-0.1564,-0.1591,-0.1592,-0.1673,-0.161,-0.1558,-0.1424,-0.1363,-0.1238,-0.1338,-0.1205,-0.1255,-0.1301,-0.1224,-0.1281,-0.1177,-0.1178,-0.1179,-0.118,-0.1181,0,-0.1247,-0.1263,-0.13,-0.1331,-0.1345,-0.1402,-0.1447,-0.1412,-0.1375,-0.1405,-0.1377,-0.1344,-0.1218,-0.1179,-0.1075,-0.0999,-0.0996,-0.0977,-0.1035,-0.1019,-0.1111,-0.1065,-0.0861,-0.0861,-0.0861,-0.0861,-0.0861,-0.0862,-0.12,-0.1195,-0.1218,-0.1195,-0.1214,-0.117,-0.1163,-0.1115,-0.1101,-0.1024,-0.1013,-0.1038,-0.1044,-0.1102,-0.0976,-0.0907,-0.0907,-0.0864,-0.0907,-0.1002,-0.1029,-0.1054,-0.1016,-0.0806,-0.0806,-0.0763,-0.0763,-0.0763]},{"header":{"parameterUnit":"m.s-1","parameterCategory":2,"la1":30.2991,"la2":30.254,"lo1":-89.0895,"lo2":-89.0444,"dy":0.0017,"dx":0.0017,"nx":28,"ny":28,"refTime":"2025-08-22T09:00:00:Z","depth":"0","parameterNumber":3,"parameterNumberName":"V-component_of_CURRENTS"},"data":[0,0,0,0,0,0,0,0,0,0,0,0,0,0,0,0,0,0,0,0,0,0,0,0,0,0,0,0,0,0,0,0,0,0,0,0,0,0,0,0,0,0,0,0,0,0,0,0,0,0,0,0,0,0,0,0,0,0,-0.0006,-0.0005,0,0.002,0.0021,0.0021,0.0076,0.0078,0.0079,0.008,0.0109,0.0109,0.0109,0,0,0,0,0,0,0,0,0,0,0,0,0,-0.0085,-0.0084,-0.0006,-0.0005,-0.0005,0.002,0.0021,0.0021,0.0076,0.0078,0.0079,0.0081,0.011,0.0109,0.0108,0,0,0,0,0,0,0,0,0,0,0,0,0,-0.0056,-0.0083,-0.0006,0.0028,0.0031,0.002,0.0021,0.0021,0.0076,0.0078,0.008,0.0082,0.011,0.0109,0.0108,0.0064,0,0,0.0106,0.0106,0,0,0,0,0,0,0,0,-0.0058,-0.0054,0.0022,0.0025,0.0029,0.0049,0.0003,0.0036,0.0075,0.0056,0.008,0.0083,0.009,0.0091,0.0088,0.0065,0.0066,0.0106,0.0106,0.0105,0.0105,0,0,0,0,0,0,0,-0.006,-0.0055,0.0002,0.0023,0.0027,0.0015,0.0022,0.0009,0.006,0.0058,0.0063,0.0069,0.0092,0.0088,0.0089,0.0067,0.0106,0.0106,0.0105,0.0105,0.0039,0.0038,0,0,0,0,0,0,-0.0056,-0.0056,0.0001,0.0003,-0.0008,0.0015,0.0023,0.0039,0.006,0.0066,0.0067,0.0071,0.0089,0.009,0.009,0.006,0.0105,0.0105,0.0104,0.004,0.0038,0.0037,0,0,0,0,0,0,-0.0058,-0.0051,0.0,-0.0025,-0.0019,0.0016,0.0032,0.0038,0.0047,0.0067,0.0073,0.0071,0.009,0.0091,0.0079,0.0062,0.0104,0.0104,0.0042,0.004,0.0038,-0.0013,0,0,0,0,0,0,-0.006,-0.0052,-0.0052,-0.0024,-0.0017,-0.001,0.0031,0.0038,0.0048,0.0054,0.0072,0.0076,0.0092,0.008,0.0078,0.0061,0.0103,0.0043,0.0041,0.0038,-0.001,-0.0017,-0.0022,0,0,0,0,0,-0.0063,-0.0071,-0.0052,-0.0046,-0.0014,-0.0011,-0.001,0.0019,0.0046,0.0036,0.0052,0.0076,0.0063,0.0077,0.0076,0.0059,0.0045,0.0041,0.0039,-0.0007,-0.0015,-0.0022,0,0,0,0,0,0,-0.0124,-0.0065,-0.0044,-0.0038,-0.0026,-0.0001,-0.0008,0.0014,0.0018,0.0028,0.0053,0.0057,0.0041,0.005,0.0065,0.0032,0.0059,0.0056,0.0025,0.0017,0.0011,0.0012,0.0103,0,0,0,0,0,-0.0134,-0.0114,-0.0075,-0.0078,-0.0067,-0.0038,-0.0036,-0.0013,-0.0,0.0005,0.0018,0.0027,0.0022,0.0022,0.0018,-0.0007,0.0014,-0.0018,-0.0025,-0.003,-0.0031,-0.0033,-0.0039,0.0027,0.0027,0.0027,0,0,-0.0164,-0.0127,-0.0121,-0.0089,-0.0073,-0.0075,-0.0032,-0.0028,-0.0035,0.0004,-0.0009,0.0002,0.0009,-0.0013,-0.0019,-0.0003,-0.0035,-0.0034,-0.0038,-0.0036,-0.0037,-0.0043,-0.0048,0.0025,0.0026,0.0026,0,0,-0.0207,-0.0175,-0.0167,-0.0156,-0.0125,-0.0111,-0.0108,-0.0081,-0.0071,-0.0085,-0.0057,-0.0055,-0.0066,-0.006,-0.006,-0.0108,-0.0071,-0.011,-0.0139,-0.0141,-0.0146,-0.0151,-0.0117,-0.0117,-0.0111,-0.0111,-0.0111,0,-0.025,-0.0223,-0.0176,-0.0169,-0.0167,-0.0126,-0.0135,-0.0132,-0.0117,-0.0116,-0.0095,-0.01,-0.009,-0.011,-0.0121,-0.0121,-0.0105,-0.0109,-0.0149,-0.0152,-0.0156,-0.012,-0.012,-0.0114,-0.0113,-0.0113,-0.0113,0,-0.0279,-0.0264,-0.0266,-0.0233,-0.0233,-0.0238,-0.0214,-0.0218,-0.0198,-0.0185,-0.0194,-0.0179,-0.0174,-0.0176,-0.0163,-0.0186,-0.0159,-0.0157,-0.0126,-0.0165,-0.0125,-0.0125,-0.0118,-0.0117,-0.0116,-0.0115,0,0,-0.036,-0.0295,-0.0298,-0.0288,-0.0262,-0.0266,-0.0282,-0.0281,-0.0284,-0.0273,-0.0277,-0.0282,-0.0252,-0.025,-0.023,-0.0229,-0.0231,-0.0205,-0.0204,-0.0165,-0.0211,-0.0145,-0.0137,-0.0239,-0.024,-0.024,-0.0166,0,-0.04,-0.0387,-0.035,-0.037,-0.0365,-0.0339,-0.0357,-0.0353,-0.034,-0.0339,-0.0314,-0.0313,-0.0287,-0.0279,-0.0277,-0.0246,-0.0235,-0.025,-0.0184,-0.0181,-0.0113,-0.0137,-0.008,-0.0006,-0.0166,-0.0165,-0.0165,0,-0.0442,-0.0421,-0.0426,-0.041,-0.0408,-0.0421,-0.0428,-0.0437,-0.0424,-0.0411,-0.0396,-0.0368,-0.0358,-0.0331,-0.0294,-0.0305,-0.0263,-0.0234,-0.0231,-0.0151,-0.0115,0.0003,0.0002,0.0144,-0.0164,-0.0164,-0.0164,0,-0.0502,-0.0484,-0.0483,-0.048,-0.0457,-0.0466,-0.0466,-0.0458,-0.0465,-0.0448,-0.044,-0.042,-0.0397,-0.0366,-0.0291,-0.0299,-0.0236,-0.0239,-0.0135,-0.0128,-0.0057,-0.0043,0.0091,-0.0216,-0.0216,-0.0216,-0.0216,0,-0.0551,-0.0556,-0.0507,-0.0509,-0.0532,-0.0502,-0.0527,-0.0522,-0.0509,-0.0516,-0.0474,-0.0466,-0.0408,-0.0357,-0.0302,-0.0202,-0.0241,-0.0137,-0.0113,-0.0071,-0.006,0.0086,0.0137,-0.0213,-0.0214,-0.0214,-0.0215,0,-0.0606,-0.0572,-0.0574,-0.0551,-0.0552,-0.0567,-0.0566,-0.0582,-0.0556,-0.056,-0.0556,-0.05,-0.0429,-0.0347,-0.0272,-0.0201,-0.0028,-0.0078,-0.001,0.0021,0.0241,0.0287,0.0433,0.0516,0.004,0.0042,0.0043,0,-0.062,-0.0621,-0.0609,-0.0622,-0.061,-0.0622,-0.0637,-0.0616,-0.0626,-0.0582,-0.059,-0.0509,-0.0458,-0.0292,-0.0151,-0.0018,0.0066,0.0123,0.0109,0.0271,0.0338,0.0365,0.0425,0.0193,0.0196,0.0198,0.02,0,-0.0653,-0.0647,-0.0647,-0.0675,-0.0691,-0.0709,-0.0719,-0.0733,-0.0703,-0.069,-0.0651,-0.06,-0.0402,-0.0216,-0.0006,0.0076,0.0251,0.0174,0.031,0.0449,0.0515,0.0601,0.0153,0.022,0.0218,0.0217,0.0216,0.0215,-0.0676,-0.0692,-0.0698,-0.073,-0.0755,-0.0786,-0.08,-0.0806,-0.081,-0.0784,-0.0715,-0.0601,-0.0268,0.0033,0.0149,0.0474,0.0415,0.0558,0.0596,0.0605,0.0698,0.0315,0.0423,0.0422,0.0422,0.0421,0.0421,0,-0.0702,-0.0723,-0.0757,-0.0788,-0.0829,-0.0826,-0.0849,-0.0848,-0.085,-0.0814,-0.0762,-0.0379,-0.0061,0.0263,0.0707,0.0883,0.0912,0.0971,0.1021,0.1057,0.07,0.0721,0.0936,0.0936,0.0936,0.0935,0.0935,0.0935,-0.0717,-0.0755,-0.0777,-0.0845,-0.0869,-0.0895,-0.0903,-0.0891,-0.0852,-0.0716,-0.0522,-0.0362,0.0206,0.0827,0.1239,0.1275,0.1421,0.1415,0.1477,0.1238,0.1202,0.1168,0.1201,0.1513,0.1514,0.1835,0.1839,0.1841]}],[{"header":{"parameterUnit":"m.s-1","parameterCategory":2,"la1":30.2991,"la2":30.254,"lo1":-89.0895,"lo2":-89.0444,"dy":0.0017,"dx":0.0017,"nx":28,"ny":28,"refTime":"2025-08-22T09:00:00:Z","depth":"2","parameterNumber":2,"parameterNumberName":"U-component_of_CURRENTS"},"data":[0,0,0,0,0,0,0,0,0,0,0,0,0,0,0,0,0,0,0,0,0,0,0,0,0,0,0,0,0,0,0,0,0,0,0,0,0,0,0,0,0,0,0,0,0,0,0,0,0,0,0,0,0,0,0,0,0,0,-0.1766,-0.1766,0,-0.1728,-0.1728,-0.1727,-0.1692,-0.1692,-0.1691,-0.1691,-0.1848,-0.1852,-0.1857,0,0,0,0,0,0,0,0,0,0,0,0,0,-0.1779,-0.1779,-0.1766,-0.1766,-0.1765,-0.1728,-0.1728,-0.1727,-0.1692,-0.1692,-0.1691,-0.1691,-0.1846,-0.1852,-0.1857,0,0,0,0,0,0,0,0,0,0,0,0,0,-0.176,-0.1779,-0.1766,-0.1744,-0.1741,-0.1728,-0.1728,-0.1727,-0.1692,-0.1692,-0.1691,-0.1691,-0.1845,-0.1851,-0.1858,-0.1913,0,0,-0.1879,-0.1882,0,0,0,0,0,0,0,0,-0.1761,-0.176,-0.1747,-0.1745,-0.1742,-0.1714,-0.1789,-0.1799,-0.1693,-0.1711,-0.1691,-0.169,-0.1822,-0.1831,-0.1822,-0.192,-0.1927,-0.188,-0.1884,-0.1887,-0.1889,0,0,0,0,0,0,0,-0.1763,-0.1761,-0.1751,-0.1747,-0.1744,-0.1725,-0.1722,-0.179,-0.1774,-0.1709,-0.1707,-0.1703,-0.1822,-0.1815,-0.1826,-0.1929,-0.1879,-0.1885,-0.189,-0.1892,-0.2146,-0.2148,0,0,0,0,0,0,-0.177,-0.1763,-0.1752,-0.175,-0.1751,-0.1725,-0.1722,-0.1724,-0.1769,-0.1773,-0.1703,-0.1701,-0.1804,-0.1818,-0.1832,-0.1942,-0.1887,-0.1893,-0.1897,-0.2143,-0.2146,-0.2149,0,0,0,0,0,0,-0.1771,-0.177,-0.1754,-0.1755,-0.1752,-0.1726,-0.1728,-0.1723,-0.1732,-0.1762,-0.177,-0.1719,-0.1804,-0.1822,-0.1884,-0.1947,-0.1896,-0.1902,-0.214,-0.2144,-0.2148,-0.2137,0,0,0,0,0,0,-0.1771,-0.177,-0.1773,-0.1756,-0.1752,-0.1761,-0.1729,-0.1723,-0.173,-0.1727,-0.1779,-0.1791,-0.1805,-0.1873,-0.1891,-0.1955,-0.1908,-0.2137,-0.2142,-0.2146,-0.2134,-0.214,-0.2145,0,0,0,0,0,-0.1772,-0.1781,-0.1774,-0.1772,-0.1757,-0.1762,-0.1759,-0.1738,-0.1732,-0.1743,-0.176,-0.179,-0.1919,-0.1879,-0.19,-0.1968,-0.2134,-0.214,-0.2146,-0.2132,-0.2139,-0.2145,0,0,0,0,0,0,-0.1798,-0.1777,-0.1769,-0.1774,-0.1775,-0.1757,-0.1765,-0.1755,-0.1774,-0.178,-0.1805,-0.1819,-0.1897,-0.1941,-0.1897,-0.2059,-0.2042,-0.2052,-0.2024,-0.2032,-0.2037,-0.2038,-0.1913,0,0,0,0,0,-0.1804,-0.1797,-0.1789,-0.1795,-0.1804,-0.1792,-0.1791,-0.1781,-0.1792,-0.1798,-0.1833,-0.1886,-0.1938,-0.1985,-0.2032,-0.2124,-0.2116,-0.2191,-0.2196,-0.22,-0.2218,-0.2219,-0.2224,-0.2168,-0.2168,-0.2168,0,0,-0.1832,-0.1803,-0.1813,-0.1799,-0.1802,-0.182,-0.1791,-0.1805,-0.1826,-0.1822,-0.1877,-0.1902,-0.1961,-0.2037,-0.2084,-0.2085,-0.2211,-0.2208,-0.221,-0.2226,-0.2225,-0.223,-0.2235,-0.2172,-0.2172,-0.2171,0,0,-0.1854,-0.1853,-0.1852,-0.1869,-0.1862,-0.1849,-0.1863,-0.1867,-0.1879,-0.1927,-0.1925,-0.1976,-0.2074,-0.2108,-0.2144,-0.2225,-0.2225,-0.2266,-0.2315,-0.2315,-0.2318,-0.2321,-0.2293,-0.2293,-0.2286,-0.2286,-0.2286,0,-0.1881,-0.1873,-0.1859,-0.1872,-0.1892,-0.1873,-0.1903,-0.1917,-0.1937,-0.197,-0.1957,-0.2064,-0.2109,-0.2193,-0.2215,-0.2239,-0.2221,-0.2272,-0.2316,-0.2319,-0.2322,-0.2293,-0.2294,-0.2287,-0.2287,-0.2287,-0.2287,0,-0.1905,-0.1917,-0.1933,-0.1932,-0.1953,-0.198,-0.2001,-0.2037,-0.2048,-0.2058,-0.2136,-0.2157,-0.2218,-0.2257,-0.2263,-0.2332,-0.2302,-0.2298,-0.2282,-0.2326,-0.2294,-0.2294,-0.2287,-0.2287,-0.2287,-0.2287,0,0,-0.1927,-0.1938,-0.195,-0.1969,-0.1993,-0.2012,-0.2077,-0.2119,-0.2155,-0.2194,-0.2236,-0.2324,-0.231,-0.235,-0.2357,-0.2382,-0.2376,-0.2358,-0.2358,-0.2301,-0.2347,-0.2194,-0.2179,-0.2362,-0.2363,-0.2364,-0.2304,0,-0.1949,-0.1958,-0.1973,-0.2033,-0.2053,-0.2101,-0.215,-0.2201,-0.2227,-0.2265,-0.2309,-0.2336,-0.2351,-0.2353,-0.2383,-0.2372,-0.2383,-0.2392,-0.2341,-0.234,-0.2173,-0.2177,-0.2043,-0.1967,-0.2305,-0.2305,-0.2305,0,-0.1958,-0.1961,-0.1998,-0.2062,-0.2085,-0.2122,-0.2201,-0.2239,-0.2303,-0.2331,-0.2372,-0.237,-0.2415,-0.2394,-0.2413,-0.2409,-0.2388,-0.2379,-0.2376,-0.2242,-0.2188,-0.1989,-0.1956,-0.2306,-0.2306,-0.2305,-0.2305,0,-0.1928,-0.1988,-0.2002,-0.2038,-0.2105,-0.2158,-0.2185,-0.2257,-0.2293,-0.2335,-0.2353,-0.2393,-0.2384,-0.239,-0.2378,-0.2387,-0.2367,-0.2369,-0.2215,-0.2203,-0.2087,-0.2062,-0.2377,-0.2377,-0.2377,-0.2377,-0.2377,0,-0.1911,-0.1954,-0.1993,-0.2022,-0.2066,-0.2127,-0.2173,-0.2227,-0.2277,-0.229,-0.2347,-0.2338,-0.2381,-0.2373,-0.2368,-0.2275,-0.2352,-0.2216,-0.2179,-0.2077,-0.2054,-0.2359,-0.2358,-0.2375,-0.2375,-0.2376,-0.2376,0,-0.1878,-0.1897,-0.1938,-0.2015,-0.2042,-0.2065,-0.2141,-0.217,-0.2228,-0.2237,-0.2242,-0.2294,-0.2266,-0.2298,-0.2285,-0.2228,-0.2179,-0.2131,-0.199,-0.1935,-0.2018,-0.2018,-0.1944,-0.1938,-0.1933,-0.1928,-0.1925,0,-0.185,-0.186,-0.1922,-0.1913,-0.1947,-0.1991,-0.2018,-0.2116,-0.2113,-0.2184,-0.2153,-0.2176,-0.2121,-0.205,-0.1985,-0.1919,-0.2047,-0.1736,-0.1734,-0.2004,-0.1975,-0.1983,-0.199,-0.1579,-0.1573,-0.1568,-0.1564,0,-0.1812,-0.1832,-0.1833,-0.1814,-0.1833,-0.186,-0.1881,-0.1897,-0.1976,-0.1998,-0.1959,-0.1935,-0.1877,-0.1724,-0.1651,-0.1603,-0.1735,-0.1626,-0.1955,-0.1694,-0.165,-0.1626,-0.1646,-0.152,-0.1525,-0.1528,-0.153,-0.1532,-0.1762,-0.1731,-0.1699,-0.1674,-0.1686,-0.1665,-0.1649,-0.1675,-0.1666,-0.1667,-0.1712,-0.165,-0.163,-0.1425,-0.133,-0.1272,-0.1395,-0.135,-0.137,-0.1394,-0.1347,-0.1295,-0.1089,-0.1091,-0.1092,-0.1094,-0.1095,0,-0.1653,-0.1607,-0.1566,-0.1501,-0.1459,-0.152,-0.151,-0.1472,-0.1418,-0.1455,-0.142,-0.1262,-0.1142,-0.116,-0.098,-0.0896,-0.0941,-0.087,-0.0963,-0.1005,-0.1043,-0.0984,-0.0627,-0.0625,-0.0624,-0.0623,0,0,-0.1573,-0.1469,-0.1432,-0.1277,-0.1255,-0.1178,-0.1155,-0.1126,-0.1114,-0.1067,-0.1057,-0.1141,-0.1131,-0.0911,-0.0826,-0.0707,-0.086,-0.0662,-0.1039,-0.1193,-0.123,-0.1313,-0.1266,0,0,0,0,0]},{"header":{"parameterUnit":"m.s-1","parameterCategory":2,"la1":30.2991,"la2":30.254,"lo1":-89.0895,"lo2":-89.0444,"dy":0.0017,"dx":0.0017,"nx":28,"ny":28,"refTime":"2025-08-22T09:00:00:Z","depth":"2","parameterNumber":3,"parameterNumberName":"V-component_of_CURRENTS"},"data":[0,0,0,0,0,0,0,0,0,0,0,0,0,0,0,0,0,0,0,0,0,0,0,0,0,0,0,0,0,0,0,0,0,0,0,0,0,0,0,0,0,0,0,0,0,0,0,0,0,0,0,0,0,0,0,0,0,0,-0.0032,-0.0031,0,0.0003,0.0004,0.0004,0.0023,0.0023,0.0023,0.0023,0.0187,0.0191,0.0196,0,0,0,0,0,0,0,0,0,0,0,0,0,-0.0065,-0.0064,-0.0032,-0.0031,-0.0031,0.0003,0.0004,0.0005,0.0023,0.0023,0.0023,0.0023,0.0186,0.0191,0.0196,0,0,0,0,0,0,0,0,0,0,0,0,0,-0.0042,-0.0064,-0.0032,-0.0018,-0.0017,0.0003,0.0004,0.0005,0.0023,0.0023,0.0023,0.0023,0.0184,0.019,0.0197,0.0238,0,0,0.0217,0.022,0,0,0,0,0,0,0,0,-0.0043,-0.004,-0.002,-0.0019,-0.0017,0.0008,0.0052,0.0089,0.0023,0.0009,0.0023,0.0023,0.0139,0.0149,0.0155,0.0246,0.0253,0.0217,0.0221,0.0224,0.0226,0,0,0,0,0,0,0,-0.0045,-0.0042,-0.0017,-0.002,-0.0018,-0.0008,-0.0004,0.0059,0.0077,0.001,0.0011,0.0014,0.0141,0.0148,0.0159,0.0255,0.0217,0.0223,0.0227,0.023,0.045,0.0452,0,0,0,0,0,0,-0.0051,-0.0043,-0.0018,-0.0016,-0.0031,-0.0007,-0.0004,0.0001,0.0073,0.0083,0.0014,0.0015,0.0137,0.0152,0.0165,0.0218,0.0224,0.023,0.0234,0.0448,0.045,0.0452,0,0,0,0,0,0,-0.0052,-0.0049,-0.002,-0.0029,-0.0025,-0.0007,-0.0002,0.0001,0.0012,0.0075,0.0087,0.0022,0.0138,0.0156,0.0209,0.0224,0.0233,0.0239,0.0446,0.0449,0.0451,0.0324,0,0,0,0,0,0,-0.0053,-0.005,-0.005,-0.003,-0.0025,-0.0009,-0.0002,0.0002,0.0014,0.0015,0.0086,0.01,0.0139,0.0199,0.0216,0.0234,0.0244,0.0443,0.0447,0.045,0.0326,0.0322,0.0319,0,0,0,0,0,-0.0054,-0.0054,-0.005,-0.0047,-0.0025,-0.0009,-0.0005,0.0008,0.0014,0.0018,0.0056,0.0098,0.0235,0.0204,0.0224,0.0244,0.0442,0.0446,0.045,0.0327,0.0323,0.0319,0,0,0,0,0,0,-0.0064,-0.0051,-0.0047,-0.0041,-0.0027,-0.0006,-0.0002,0.001,0.0041,0.0045,0.0102,0.0119,0.0175,0.0239,0.0204,0.0327,0.0355,0.0364,0.0256,0.0253,0.0249,0.0226,0.025,0,0,0,0,0,-0.0068,-0.0068,-0.0049,-0.0046,-0.0039,-0.002,-0.0012,-0.0002,0.0027,0.004,0.0087,0.0154,0.021,0.0249,0.031,0.037,0.0388,0.041,0.0406,0.0402,0.0403,0.0403,0.0397,0.0466,0.0466,0.0466,0,0,-0.0073,-0.0065,-0.0065,-0.0049,-0.0037,-0.0032,-0.0015,-0.0003,0.0004,0.0058,0.0088,0.0137,0.0223,0.0275,0.0311,0.0328,0.0396,0.0407,0.0402,0.0406,0.0407,0.0399,0.0392,0.0469,0.0469,0.0468,0,0,-0.0086,-0.0072,-0.008,-0.0067,-0.0052,-0.004,-0.0037,-0.0011,0.0004,0.0038,0.0076,0.0123,0.0224,0.0267,0.0308,0.0335,0.0369,0.038,0.0346,0.0345,0.0338,0.0331,0.0336,0.0331,0.0386,0.0386,0.0385,0,-0.0093,-0.0101,-0.0078,-0.0078,-0.0076,-0.0045,-0.0052,-0.0027,0.0011,0.0023,0.0043,0.0151,0.0219,0.0267,0.0277,0.0322,0.0326,0.0337,0.0332,0.0326,0.0321,0.0329,0.0325,0.038,0.0381,0.0381,0.0382,0,-0.0111,-0.0117,-0.0117,-0.0113,-0.0101,-0.0101,-0.0069,-0.0053,-0.0028,-0.0005,0.0043,0.0111,0.017,0.0214,0.0254,0.0273,0.0285,0.0307,0.0317,0.0305,0.0316,0.0314,0.0372,0.0374,0.0376,0.0377,0,0,-0.0141,-0.0135,-0.0139,-0.0154,-0.0124,-0.0126,-0.0102,-0.0086,-0.0091,-0.003,-0.0031,0.007,0.0091,0.0141,0.0194,0.0214,0.0184,0.0244,0.0246,0.0206,0.0173,0.026,0.0266,0.0182,0.0182,0.0181,0.0188,0,-0.0171,-0.0196,-0.0177,-0.0203,-0.0216,-0.018,-0.0172,-0.0145,-0.0115,-0.0102,-0.0027,-0.0001,0.0069,0.0077,0.0106,0.0162,0.0175,0.0181,0.0232,0.0234,0.0275,0.0266,0.0247,0.0258,0.0186,0.0186,0.0186,0,-0.0205,-0.0221,-0.0253,-0.0272,-0.0275,-0.028,-0.0282,-0.0268,-0.0224,-0.0201,-0.016,-0.0112,-0.0063,-0.0012,0.0059,0.005,0.0104,0.0153,0.0154,0.0279,0.0317,0.0269,0.0258,0.0182,0.0183,0.0183,0.0183,0,-0.0262,-0.0281,-0.0318,-0.0319,-0.0323,-0.0334,-0.0335,-0.0303,-0.0299,-0.0274,-0.0268,-0.0214,-0.0183,-0.0123,0.0006,0.0007,0.0085,0.0094,0.0225,0.0231,0.0254,0.0265,0.0133,0.0133,0.0133,0.0133,0.0133,0,-0.0307,-0.0346,-0.0354,-0.0376,-0.0429,-0.0402,-0.0441,-0.0428,-0.0406,-0.0404,-0.0335,-0.0311,-0.0212,-0.0137,-0.0042,0.0098,0.0043,0.0219,0.0239,0.0216,0.0222,0.0198,0.0205,0.0134,0.0134,0.0134,0.0134,0,-0.0373,-0.0372,-0.0425,-0.0446,-0.0458,-0.0495,-0.0509,-0.0529,-0.05,-0.0496,-0.0492,-0.0399,-0.0296,-0.0171,-0.0056,0.0051,0.0164,0.0231,0.021,0.023,0.0312,0.0314,0.0338,0.0341,0.0344,0.0346,0.0348,0,-0.0411,-0.0443,-0.0487,-0.0514,-0.053,-0.0572,-0.0597,-0.0583,-0.0587,-0.053,-0.0526,-0.0427,-0.0333,-0.0118,0.006,0.0225,0.0239,0.0334,0.0352,0.0316,0.0333,0.033,0.0328,0.0318,0.0319,0.0321,0.0322,0,-0.0489,-0.0503,-0.0532,-0.0586,-0.0623,-0.0664,-0.0689,-0.0708,-0.0672,-0.065,-0.058,-0.0505,-0.0279,-0.0078,0.0169,0.0272,0.0301,0.0368,0.0308,0.0294,0.0305,0.032,0.0316,0.0332,0.0331,0.033,0.033,0.0329,-0.0543,-0.0573,-0.0598,-0.0642,-0.0689,-0.073,-0.0759,-0.0758,-0.0754,-0.0684,-0.0603,-0.0442,-0.0261,0.0105,0.0255,0.0413,0.0412,0.0464,0.0456,0.0448,0.0469,0.0487,0.0551,0.0551,0.0552,0.0552,0.0552,0,-0.0585,-0.0608,-0.0654,-0.0694,-0.0741,-0.0758,-0.0797,-0.0799,-0.0784,-0.0663,-0.0563,-0.0334,-0.0084,0.0115,0.0367,0.0511,0.0462,0.0543,0.0448,0.0438,0.043,0.0446,0.0524,0.0524,0.0524,0.0524,0,0,-0.0607,-0.0639,-0.0643,-0.0709,-0.0751,-0.0804,-0.0824,-0.0815,-0.0733,-0.063,-0.0475,-0.0272,-0.0037,0.014,0.03,0.0427,0.0395,0.0436,0.0449,0.0309,0.0299,0.0382,0.0398,0,0,0,0,0]}],[{"header":{"parameterUnit":"m.s-1","parameterCategory":2,"la1":30.2991,"la2":30.254,"lo1":-89.0895,"lo2":-89.0444,"dy":0.0017,"dx":0.0017,"nx":28,"ny":28,"refTime":"2025-08-22T09:00:00:Z","depth":"4","parameterNumber":2,"parameterNumberName":"U-component_of_CURRENTS"},"data":[0,0,0,0,0,0,0,0,0,0,0,0,0,0,0,0,0,0,0,0,0,0,0,0,0,0,0,0,0,0,0,0,0,0,0,0,0,0,0,0,0,0,0,0,0,0,0,0,0,0,0,0,0,0,0,0,0,0,-0.1101,-0.1102,0,-0.1172,-0.1173,-0.1174,-0.1215,-0.1215,-0.1215,-0.1215,-0.1269,-0.127,-0.1272,0,0,0,0,0,0,0,0,0,0,0,0,0,-0.1028,-0.1029,-0.1101,-0.1102,-0.1103,-0.1172,-0.1173,-0.1174,-0.1215,-0.1215,-0.1215,-0.1215,-0.1269,-0.127,-0.1272,0,0,0,0,0,0,0,0,0,0,0,0,0,-0.1075,-0.1029,-0.1101,-0.1132,-0.1135,-0.1172,-0.1173,-0.1174,-0.1215,-0.1215,-0.1215,-0.1215,-0.1268,-0.127,-0.1272,-0.1279,0,0,-0.1278,-0.1279,0,0,0,0,0,0,0,0,-0.1072,-0.1078,-0.1126,-0.113,-0.1134,-0.1185,-0.1167,-0.1209,-0.1215,-0.1184,-0.1215,-0.1215,-0.1239,-0.1244,-0.1257,-0.1282,-0.1284,-0.1278,-0.1279,-0.128,-0.1281,0,0,0,0,0,0,0,-0.1069,-0.1075,-0.1129,-0.1127,-0.1132,-0.1151,-0.1158,-0.1175,-0.1209,-0.1187,-0.119,-0.1198,-0.1241,-0.1255,-0.1258,-0.1285,-0.1278,-0.128,-0.1281,-0.1282,-0.1359,-0.136,0,0,0,0,0,0,-0.1059,-0.1072,-0.1127,-0.1131,-0.1103,-0.1152,-0.116,-0.1168,-0.121,-0.1216,-0.1198,-0.12,-0.1251,-0.1256,-0.126,-0.1316,-0.128,-0.1282,-0.1283,-0.1359,-0.136,-0.1361,0,0,0,0,0,0,-0.1057,-0.1063,-0.1124,-0.1103,-0.1112,-0.1153,-0.1162,-0.1169,-0.12,-0.1218,-0.1224,-0.1223,-0.1252,-0.1257,-0.1294,-0.1317,-0.1283,-0.1285,-0.1358,-0.1359,-0.136,-0.1399,0,0,0,0,0,0,-0.1055,-0.1062,-0.1076,-0.1103,-0.1113,-0.1157,-0.1162,-0.1171,-0.1203,-0.1207,-0.1241,-0.1246,-0.1252,-0.1291,-0.1296,-0.1319,-0.1286,-0.1356,-0.1358,-0.136,-0.1396,-0.1401,-0.1406,0,0,0,0,0,-0.1052,-0.1067,-0.1076,-0.1083,-0.1127,-0.1158,-0.1166,-0.1195,-0.1205,-0.1222,-0.1247,-0.1245,-0.1305,-0.1294,-0.1299,-0.1323,-0.1356,-0.1358,-0.136,-0.1394,-0.14,-0.1405,0,0,0,0,0,0,-0.1042,-0.1074,-0.1084,-0.1108,-0.1135,-0.1165,-0.1187,-0.1204,-0.1239,-0.1245,-0.1261,-0.1267,-0.1307,-0.1309,-0.1296,-0.1349,-0.1329,-0.1332,-0.1353,-0.1359,-0.1363,-0.1352,-0.1288,0,0,0,0,0,-0.1045,-0.1068,-0.1095,-0.1117,-0.113,-0.1161,-0.1181,-0.1199,-0.1228,-0.1245,-0.1272,-0.1295,-0.1317,-0.1333,-0.1352,-0.1384,-0.137,-0.1401,-0.1405,-0.1409,-0.1403,-0.141,-0.1415,-0.1367,-0.1367,-0.1367,0,0,-0.1048,-0.1069,-0.1083,-0.1118,-0.114,-0.1167,-0.1174,-0.1207,-0.1236,-0.1244,-0.1298,-0.1314,-0.1329,-0.1366,-0.1383,-0.1373,-0.1415,-0.1412,-0.1415,-0.1407,-0.1413,-0.1417,-0.1421,-0.1369,-0.1368,-0.1368,0,0,-0.106,-0.1082,-0.1103,-0.1126,-0.1162,-0.1183,-0.1195,-0.1235,-0.1261,-0.1305,-0.1318,-0.1348,-0.1389,-0.1404,-0.1414,-0.1454,-0.1439,-0.1464,-0.1481,-0.1488,-0.1492,-0.1495,-0.1479,-0.148,-0.1466,-0.1467,-0.1467,0,-0.1064,-0.1091,-0.1114,-0.1137,-0.116,-0.1191,-0.1215,-0.1247,-0.1298,-0.1317,-0.1327,-0.1389,-0.1405,-0.1441,-0.1457,-0.1465,-0.1458,-0.146,-0.1494,-0.1496,-0.1499,-0.1482,-0.1483,-0.1469,-0.1468,-0.1468,-0.1468,0,-0.1082,-0.1112,-0.1126,-0.1166,-0.1194,-0.1222,-0.1259,-0.1296,-0.1328,-0.1355,-0.1404,-0.1431,-0.1461,-0.1478,-0.1481,-0.1512,-0.1497,-0.1498,-0.1478,-0.1506,-0.1486,-0.1486,-0.1472,-0.1471,-0.147,-0.147,0,0,-0.1063,-0.1128,-0.1134,-0.1159,-0.1211,-0.1234,-0.1282,-0.1327,-0.1357,-0.1406,-0.1445,-0.1487,-0.1497,-0.1508,-0.1522,-0.1534,-0.1549,-0.1527,-0.1526,-0.1507,-0.155,-0.1456,-0.1446,-0.156,-0.156,-0.1561,-0.1527,0,-0.107,-0.112,-0.1151,-0.1201,-0.1227,-0.1269,-0.1309,-0.1354,-0.1394,-0.1441,-0.1469,-0.1511,-0.1511,-0.1532,-0.1543,-0.1555,-0.1552,-0.1556,-0.1528,-0.1527,-0.1437,-0.1445,-0.1562,-0.1527,-0.1527,-0.1527,-0.1527,0,-0.1067,-0.1105,-0.1154,-0.1219,-0.1233,-0.1271,-0.1332,-0.1372,-0.1432,-0.1461,-0.1499,-0.1525,-0.156,-0.1555,-0.1568,-0.1573,-0.1557,-0.1557,-0.1556,-0.1452,-0.1433,-0.1495,-0.1527,-0.1527,-0.1527,-0.1527,-0.1527,0,-0.103,-0.1103,-0.1145,-0.1168,-0.1245,-0.1276,-0.1319,-0.1379,-0.1409,-0.1477,-0.1501,-0.1544,-0.157,-0.157,-0.1566,-0.1573,-0.1566,-0.1574,-0.1466,-0.1459,-0.1538,-0.1535,-0.1563,-0.1563,-0.1563,-0.1563,-0.1563,0,-0.1011,-0.1047,-0.1138,-0.1158,-0.1207,-0.1265,-0.1314,-0.1359,-0.1419,-0.1447,-0.1506,-0.1528,-0.1577,-0.1581,-0.1568,-0.1508,-0.1561,-0.1458,-0.1444,-0.1554,-0.1553,-0.1537,-0.1535,-0.1562,-0.1562,-0.1562,-0.1562,0,-0.0957,-0.1021,-0.1071,-0.116,-0.119,-0.1223,-0.1304,-0.1329,-0.1396,-0.1435,-0.1457,-0.1521,-0.1525,-0.1541,-0.1544,-0.1496,-0.1461,-0.142,-0.1521,-0.1514,-0.1348,-0.1348,-0.1299,-0.1296,-0.1293,-0.129,-0.1288,0,-0.0931,-0.0952,-0.1054,-0.1083,-0.1127,-0.1189,-0.122,-0.1304,-0.1324,-0.1415,-0.1415,-0.146,-0.1486,-0.1408,-0.1437,-0.1389,-0.1373,-0.1341,-0.1355,-0.1329,-0.1321,-0.1326,-0.133,-0.1283,-0.1282,-0.1282,-0.1281,0,-0.0871,-0.0917,-0.096,-0.1019,-0.1066,-0.1112,-0.1166,-0.1176,-0.1261,-0.1334,-0.1346,-0.1353,-0.135,-0.1348,-0.1311,-0.1282,-0.1362,-0.1309,-0.1315,-0.1329,-0.1309,-0.1305,-0.1312,-0.127,-0.1272,-0.1273,-0.1273,0,-0.0823,-0.084,-0.09,-0.0941,-0.0995,-0.1016,-0.1064,-0.1093,-0.1129,-0.1231,-0.1233,-0.1283,-0.1345,-0.129,-0.126,-0.122,-0.1207,-0.1173,-0.1187,-0.1199,-0.118,-0.1141,-0.1028,0,0,0,0,0,-0.0772,-0.0784,-0.0814,-0.0863,-0.0908,-0.0939,-0.101,-0.1058,-0.1147,-0.1124,-0.1178,-0.1173,-0.1157,-0.1182,-0.1115,-0.1195,-0.1198,-0.1113,-0.1164,-0.1211,-0.1223,-0.121,0,0,0,0,0,0,-0.0743,-0.0773,-0.0787,-0.0778,-0.079,-0.0834,-0.0878,-0.0944,-0.0938,-0.1035,-0.1028,-0.1099,-0.1089,-0.1172,-0.109,-0.1092,-0.1101,-0.1142,-0.1138,-0.1204,-0.1215,-0.1225,-0.1215,0,0,0,0,0]},{"header":{"parameterUnit":"m.s-1","parameterCategory":2,"la1":30.2991,"la2":30.254,"lo1":-89.0895,"lo2":-89.0444,"dy":0.0017,"dx":0.0017,"nx":28,"ny":28,"refTime":"2025-08-22T09:00:00:Z","depth":"4","parameterNumber":3,"parameterNumberName":"V-component_of_CURRENTS"},"data":[0,0,0,0,0,0,0,0,0,0,0,0,0,0,0,0,0,0,0,0,0,0,0,0,0,0,0,0,0,0,0,0,0,0,0,0,0,0,0,0,0,0,0,0,0,0,0,0,0,0,0,0,0,0,0,0,0,0,-0.0062,-0.0062,0,-0.0035,-0.0035,-0.0035,-0.0021,-0.0021,-0.0021,-0.0021,0.0032,0.0033,0.0035,0,0,0,0,0,0,0,0,0,0,0,0,0,-0.0068,-0.0069,-0.0062,-0.0062,-0.0062,-0.0036,-0.0035,-0.0035,-0.0021,-0.0021,-0.0021,-0.0021,0.0031,0.0033,0.0035,0,0,0,0,0,0,0,0,0,0,0,0,0,-0.0056,-0.0069,-0.0062,-0.0052,-0.0051,-0.0036,-0.0035,-0.0035,-0.0021,-0.0021,-0.0021,-0.0021,0.0031,0.0033,0.0035,0.005,0,0,0.0042,0.0043,0,0,0,0,0,0,0,0,-0.0056,-0.0055,-0.0054,-0.0053,-0.0052,-0.0032,-0.0018,-0.0005,-0.0021,-0.0032,-0.0021,-0.0021,0.0012,0.0016,0.0022,0.0052,0.0055,0.0042,0.0043,0.0044,0.0045,0,0,0,0,0,0,0,-0.0057,-0.0056,-0.0051,-0.0054,-0.0052,-0.0038,-0.0036,-0.0015,-0.0009,-0.0031,-0.003,-0.0028,0.0013,0.002,0.0023,0.0055,0.0042,0.0044,0.0045,0.0046,0.0086,0.0086,0,0,0,0,0,0,-0.0064,-0.0057,-0.0052,-0.005,-0.0055,-0.0038,-0.0036,-0.0038,-0.001,-0.0006,-0.0028,-0.0028,0.0016,0.0021,0.0025,0.0035,0.0044,0.0046,0.0047,0.0086,0.0086,0.0086,0,0,0,0,0,0,-0.0064,-0.0064,-0.0053,-0.0053,-0.0051,-0.0038,-0.004,-0.0037,-0.0031,-0.0008,-0.0003,-0.0025,0.0016,0.0022,0.004,0.0038,0.0047,0.0049,0.0086,0.0086,0.0086,0.0062,0,0,0,0,0,0,-0.0064,-0.0064,-0.0065,-0.0054,-0.0051,-0.0048,-0.004,-0.0037,-0.003,-0.0029,-0.0003,0.0002,0.0016,0.0036,0.0042,0.0041,0.0051,0.0087,0.0086,0.0086,0.0063,0.0061,0.0059,0,0,0,0,0,-0.0065,-0.0067,-0.0065,-0.0065,-0.0055,-0.0048,-0.0045,-0.0035,-0.003,-0.0029,-0.0013,0.0001,0.0037,0.0038,0.0045,0.0044,0.0087,0.0086,0.0086,0.0064,0.0061,0.0059,0,0,0,0,0,0,-0.0067,-0.0066,-0.0064,-0.0065,-0.0059,-0.0046,-0.0043,-0.0036,-0.0022,-0.0021,0.0002,0.0008,0.0021,0.0036,0.0036,0.0053,0.0063,0.0063,0.0043,0.0041,0.0039,0.0028,0.0053,0,0,0,0,0,-0.0069,-0.0074,-0.0067,-0.0068,-0.0067,-0.0055,-0.005,-0.0044,-0.0032,-0.0026,-0.0008,0.001,0.0024,0.0035,0.0049,0.0064,0.0084,0.0066,0.0064,0.0062,0.0057,0.009,0.0091,0.0084,0.0084,0.0084,0,0,-0.007,-0.007,-0.0072,-0.0069,-0.0064,-0.0067,-0.0052,-0.0048,-0.005,-0.0021,-0.0014,0.0004,0.0025,0.0036,0.0043,0.005,0.0074,0.0062,0.006,0.0055,0.009,0.0091,0.0091,0.0083,0.0083,0.0083,0,0,-0.0079,-0.0075,-0.0085,-0.0083,-0.008,-0.0073,-0.0073,-0.0062,-0.0056,-0.0046,-0.0029,-0.0012,0.0012,0.0026,0.0036,0.0032,0.006,0.0036,0.0021,0.0054,0.0055,0.0056,0.008,0.0083,0.0038,0.0038,0.0038,0,-0.0079,-0.0094,-0.0085,-0.0095,-0.0097,-0.0079,-0.009,-0.0079,-0.0063,-0.006,-0.0048,-0.0016,0.0005,0.0017,0.0015,0.0028,0.0048,0.003,0.0051,0.0053,0.0055,0.0079,0.0083,0.0036,0.0037,0.0037,0.0037,0,-0.0099,-0.011,-0.0115,-0.0125,-0.0123,-0.0128,-0.0117,-0.0113,-0.0102,-0.009,-0.0075,-0.0043,-0.0026,-0.0014,0.0001,0.0018,0.003,0.0044,0.0058,0.0054,0.008,0.0085,0.0035,0.0035,0.0035,0.0036,0,0,-0.0104,-0.0126,-0.0129,-0.0146,-0.0141,-0.0146,-0.0146,-0.0145,-0.0152,-0.0122,-0.0121,-0.0088,-0.0068,-0.0056,-0.003,0.0002,0.0034,0.0026,0.0028,0.005,0.0103,0.0111,0.0117,0.0057,0.0057,0.0058,0.0116,0,-0.0124,-0.0158,-0.0158,-0.0186,-0.0204,-0.0191,-0.0196,-0.019,-0.0177,-0.0169,-0.0129,-0.0117,-0.0085,-0.0076,-0.0039,0.0015,0.0046,0.0017,0.0104,0.0106,0.0114,0.0123,0.006,0.012,0.0121,0.0122,0.0123,0,-0.0145,-0.0168,-0.0204,-0.0233,-0.0239,-0.0248,-0.026,-0.0261,-0.024,-0.0228,-0.0202,-0.0171,-0.0125,-0.0096,-0.0003,-0.0021,0.0034,0.008,0.0084,0.0102,0.0123,0.0126,0.0132,0.0131,0.013,0.013,0.0129,0,-0.0166,-0.02,-0.0235,-0.0243,-0.0267,-0.0279,-0.0286,-0.0279,-0.0288,-0.0262,-0.0264,-0.0203,-0.0175,-0.0093,0.0,0.0002,0.0106,0.0122,0.0179,0.018,0.0166,0.0164,0.0184,0.0184,0.0184,0.0184,0.0183,0,-0.019,-0.0218,-0.0251,-0.027,-0.0312,-0.031,-0.0342,-0.034,-0.0336,-0.0348,-0.0296,-0.0285,-0.0171,-0.0101,-0.0011,0.0099,0.01,0.0176,0.0198,0.0153,0.015,0.0169,0.0167,0.0186,0.0185,0.0185,0.0185,0,-0.0207,-0.0229,-0.0274,-0.0311,-0.0326,-0.0353,-0.0386,-0.0407,-0.0397,-0.041,-0.0403,-0.0339,-0.0237,-0.0127,0.001,0.0078,0.0185,0.0221,0.0158,0.0175,0.0239,0.0234,0.0293,0.0293,0.0294,0.0295,0.0295,0,-0.0219,-0.0244,-0.0306,-0.0341,-0.036,-0.04,-0.043,-0.0436,-0.0453,-0.0441,-0.0445,-0.0362,-0.0304,-0.0104,0.0016,0.0187,0.021,0.0255,0.0255,0.0236,0.0251,0.0246,0.024,0.0296,0.0296,0.0297,0.0297,0,-0.0239,-0.0262,-0.0299,-0.0372,-0.0417,-0.0469,-0.0504,-0.0523,-0.0524,-0.0521,-0.0465,-0.0367,-0.0254,-0.0095,0.0034,0.0155,0.0223,0.0263,0.0262,0.0262,0.0241,0.0254,0.0248,0.0299,0.0299,0.0299,0.0299,0,-0.0249,-0.028,-0.0333,-0.0395,-0.046,-0.0514,-0.0535,-0.0541,-0.0549,-0.0524,-0.0501,-0.0377,-0.0298,-0.0112,0.0008,0.0129,0.0162,0.0194,0.0198,0.0197,0.0154,0.0111,0.0149,0,0,0,0,0,-0.0253,-0.029,-0.0353,-0.0425,-0.0492,-0.0526,-0.0576,-0.0586,-0.0588,-0.0549,-0.0522,-0.0409,-0.0219,-0.0134,-0.0009,0.0015,0.0172,0.0164,0.0208,0.0312,0.031,0.0276,0,0,0,0,0,0,-0.0258,-0.0312,-0.0349,-0.0435,-0.0486,-0.0555,-0.0587,-0.0592,-0.056,-0.0541,-0.0431,-0.0379,-0.0186,-0.0281,-0.0003,0.0032,0.0075,0.0255,0.0258,0.0314,0.0312,0.0309,0.0274,0,0,0,0,0]}]]